Date,TemperatureHighF,TemperatureAvgF,TemperatureLowF,DewpointHighF,DewpointAvgF,DewpointLowF,HumidityHigh,HumidityAvg,HumidityLow,PressureMaxIn,PressureMinIn,WindSpeedMaxMPH,WindSpeedAvgMPH,GustSpeedMaxMPH,PrecipitationSumIn
2013-10-1,92.1,75.4,57.9,41.8,33.7,24.9,32,22,17,30.00,29.88,2,0,2,0.00
2013-10-2,90.9,75.7,60.8,47.0,38.3,29.9,42,27,19,29.97,29.82,3,1,3,0.00
2013-10-3,91.8,77.1,61.0,51.0,42.2,32.9,48,31,18,29.88,29.74,4,2,4,0.00
2013-10-5,80.1,71.2,65.5,33.5,24.7,21.2,20,17,15,30.09,30.00,7,2,7,0.00
2013-10-6,88.7,71.4,52.9,37.4,27.7,18.7,26,20,15,30.09,29.97,3,1,3,0.00
2013-10-7,95.4,75.3,54.9,42.1,30.4,18.5,26,20,14,30.00,29.88,3,1,3,0.00
2013-10-8,89.8,74.5,59.7,40.5,31.7,23.9,27,21,16,29.91,29.79,9,2,9,0.00
2013-10-9,89.8,76.7,67.8,41.6,35.6,28.4,36,23,18,29.82,29.68,17,5,17,0.00
2013-10-10,70.7,63.0,55.9,48.2,42.2,36.0,64,47,33,29.97,29.76,10,3,10,0.00
2013-10-11,77.7,62.8,48.9,43.0,36.6,30.1,63,40,24,29.97,29.88,5,2,5,0.00
2013-10-12,86.4,67.9,50.0,42.3,34.0,27.3,46,30,19,29.94,29.82,4,1,4,0.00
2013-10-13,87.3,70.4,55.8,45.1,35.7,29.4,43,29,19,29.97,29.85,10,1,10,0.00
2013-10-14,82.6,69.1,56.5,43.5,36.3,25.7,55,32,20,30.03,29.91,4,1,4,0.00
2013-10-15,82.6,67.4,53.6,39.9,31.2,23.2,38,26,19,29.94,29.85,3,0,3,0.00
2013-10-16,80.2,65.0,49.8,35.6,26.6,20.6,35,24,16,30.03,29.94,4,2,4,0.00
2013-10-17,81.5,64.1,47.3,35.7,26.5,18.8,37,25,17,30.03,29.88,4,1,4,0.00
2013-10-18,82.4,65.6,48.2,36.0,27.1,18.8,34,24,17,30.00,29.88,6,2,6,0.00
2013-10-19,86.0,66.9,48.7,36.3,24.7,16.3,27,21,14,30.03,29.91,6,2,6,0.00
2013-10-20,83.5,66.7,47.8,35.7,23.9,15.3,28,20,14,29.97,29.85,6,1,6,0.00
2013-10-21,84.9,67.3,48.4,36.2,24.6,15.3,28,20,14,29.97,29.91,8,2,8,0.00
2013-10-22,90.0,70.0,53.1,37.9,26.0,15.0,26,20,13,30.03,29.88,7,1,7,0.00
2013-10-23,91.9,72.2,54.9,40.2,28.4,18.7,26,20,14,29.94,29.85,6,2,6,0.00
2013-10-24,91.8,72.2,57.0,41.1,29.3,21.7,26,21,15,30.00,29.85,10,2,10,0.00
2013-10-25,86.2,69.7,53.2,38.5,29.5,20.2,29,23,18,30.06,29.94,5,2,5,0.00
2013-10-26,88.0,68.8,51.3,39.3,29.5,19.4,33,23,18,30.09,29.97,8,2,8,0.00
2013-10-27,90.1,70.8,56.1,40.5,29.9,22.6,30,22,15,29.97,29.79,10,2,10,0.00
2013-10-28,82.6,71.0,62.6,37.2,31.3,25.3,27,23,19,29.91,29.79,11,4,11,0.00
2013-10-29,81.7,68.9,54.5,36.8,32.0,28.4,41,26,20,29.91,29.79,17,5,17,0.00
2013-10-30,70.0,57.9,48.2,38.2,31.0,22.8,53,37,25,30.03,29.88,6,3,6,0.00
2013-10-31,75.6,58.6,41.7,33.7,26.2,20.7,47,30,21,30.09,29.94,8,2,8,0.00